This demonstration page uses our WeatherBlox Daily Observations layout. Learn more.

Left ArrowRight Arrow

38.83388, -104.82136

Hourly Observations for January 1, 2022

Temp ( °F °C ) Dew Point ( °F °C ) Humidity (%) Winds ( mph kmh ) Pressure ( in mb ) Visibility ( mi km ) Precip ( " mm )
12:12 am 00:12 Cloudy with Light Snow 23 -5 14 -10 68 68 NW 9 15 29.79 1009 3 5 0.00 0.00
12:47 am 00:47 Cloudy with Light Snow 23 -5 13 -10.6 65 65 NW 9 15 29.79 1009 3 4 0.00 0.00
12:50 am 00:50 Cloudy with Light Snow 23 -5 12 -11 63 63 NW 8 13 29.79 1009 3 4 0.00 0.00
12:54 am 00:54 Cloudy with Light Snow 23 -5 13 -10.6 65 65 NW 7 11 29.61 1003 3 4 0.00 0.00
1:34 am 01:34 Cloudy with Light Snow 22 -5.6 13 -10.6 68 68 NW 7 11 29.82 1010 4 6 0.00 0.00
1:45 am 01:45 Cloudy with Light Snow 19 -7.2 13 -10.6 77 77 NNE 5 7 29.86 1011 2 2 0.00 0.00
1:54 am 01:54 Cloudy with Light Snow 18 -7.8 12 -11.1 77 77 SE 10 17 29.65 1004 1 2 0.00 0.00
2:54 am 02:54 Cloudy with Light Snow 16 -8.9 9 -12.8 74 74 SSE 8 13 29.70 1006 1 2 0.02 0.51
3:42 am 03:42 Cloudy with Light Snow 15 -9.4 8 -13.3 74 74 SSE 3 6 29.92 1013 2 3 0.00 0.00
3:54 am 03:54 Mostly Cloudy with Light Snow 14 -10 7 -13.9 73 73 S 5 7 29.72 1006 3 5 0.00 0.00
4:54 am 04:54 Cloudy with Light Snow 14 -10 8 -13.3 77 77 ESE 3 6 29.74 1007 4 6 0.00 0.00
5:54 am 05:54 Cloudy with Light Snow 14 -10 8 -13.3 77 77 Calm 29.76 1008 3 5 0.00 0.00
6:01 am 06:01 Cloudy with Light Snow 14 -10 7 -13.9 73 73 Calm 29.96 1015 2 3 0.00 0.00
6:16 am 06:16 Cloudy with Light Snow 14 -10 7 -13.9 73 73 Calm 29.96 1015 2 2 0.01 0.25
6:40 am 06:40 Cloudy with Light Snow 14 -10 7 -14 73 73 Calm 29.98 1015 2 3 0.00 0.00
6:54 am 06:54 Cloudy with Light Snow 14 -10 7 -13.9 73 73 SSE 5 7 29.81 1009 1 2 0.01 0.25
7:54 am 07:54 Mostly Cloudy with Light Snow 13 -10.6 6 -14.4 74 74 SE 3 6 29.87 1012 1 1 0.02 0.51
8:30 am 08:30 Mostly Cloudy with Light Snow 14 -10 7 -13.9 73 73 Calm 30.06 1018 1 2 0.00 0.00
8:54 am 08:54 Mostly Cloudy with Light Snow 15 -9.4 7 -13.9 70 70 NNW 3 6 29.90 1013 1 1 0.01 0.25
9:54 am 09:54 Mostly Cloudy with Light Snow 15 -9.4 6 -14.4 67 67 NNW 8 13 29.97 1015 1 1 0.02 0.51
10:54 am 10:54 Mostly Cloudy with Light Snow 16 -8.9 6 -14.4 65 65 N 9 15 29.98 1015 1 1 0.02 0.51
11:54 am 11:54 Mostly Cloudy with Snow 16 -8.9 6 -14.4 65 65 N 10 17 29.97 1015 1 1 0.01 0.25
12:28 pm 12:28 Cloudy with Light Snow 16 -9 7 -14 67 67 N 16 26 30.06 1018 1 2 0.00 0.00
12:54 pm 12:54 Cloudy with Light Snow 16 -8.9 6 -14.4 65 65 NNW 14 22 29.96 1015 1 2 0.00 0.00
1:19 pm 13:19 Cloudy with Light Snow 16 -8.9 6 -14.4 65 65 N 14 22 30.07 1018 1 1 0.01 0.25
1:35 pm 13:35 Cloudy with Light Snow 18 -7.8 4 -15.6 54 54 N 15 24 30.05 1018 3 5 0.01 0.25
1:54 pm 13:54 Cloudy with Light Snow 18 -7.8 4 -15.6 54 54 N 14 22 29.99 1016 6 10 0.01 0.25
2:44 pm 14:44 Cloudy with Light Snow 19 -7.2 5 -15 54 54 NW 12 19 30.07 1018 6 10 0.00 0.00
2:54 pm 14:54 Cloudy 20 -6.7 5 -15 52 52 NW 8 13 30.03 1017 7 11 0.00 0.00
3:54 pm 15:54 Cloudy 17 -8.3 9 -12.8 70 70 S 10 17 30.08 1019 7 11 0.00 0.00
4:54 pm 16:54 Mostly Cloudy 13 -10.6 6 -14.4 74 74 S 7 11 30.14 1021 7 11 0.00 0.00
5:41 pm 17:41 Partly Cloudy with Mist and Fog 11 -11.7 4 -15.6 73 73 ESE 6 9 30.29 1026 1 2 0.00 0.00
5:46 pm 17:46 Mostly Cloudy with Mist and Fog 11 -11.7 4 -15.6 73 73 SE 9 15 30.29 1026 1 2 0.00 0.00
5:54 pm 17:54 Mostly Cloudy with Light Snow 11 -11.7 4 -15.6 73 73 ESE 6 9 30.17 1022 2 3 0.00 0.00
6:40 pm 18:40 Mostly Cloudy with Mist and Fog 8 -13.3 1 -17.2 73 73 ENE 6 9 30.36 1028 4 6 0.00 0.00
6:54 pm 18:54 Cloudy with Light Snow 9 -12.8 2 -16.7 73 73 NE 7 11 30.22 1023 2 3 0.00 0.00
7:44 pm 19:44 Mostly Cloudy with Mist and Fog 9 -13 1 -17 72 72 NE 5 7 30.37 1029 3 5 0.00 0.00
7:54 pm 19:54 Partly Cloudy with Mist and Fog 6 -14.4 -1 -18.3 73 73 NNE 6 9 30.25 1025 5 8 0.00 0.00
8:54 pm 20:54 Mostly Clear 6 -14.4 -3 -19.4 66 66 N 3 6 30.25 1025 7 11 0.00 0.00
9:54 pm 21:54 Mostly Clear 3 -16.1 -4 -20 72 72 N 9 15 30.29 1026 7 11 0.00 0.00
10:54 pm 22:54 Clear 4 -15.6 -5 -20.6 66 66 NNW 5 7 30.30 1026 10 16 0.00 0.00
11:54 pm 23:54 Clear 3 -16.1 -7 -21.7 62 62 NNW 5 7 30.30 1026 10 16 0.00 0.00

Powered by AerisWeather